Theta_e
329 324 330 326 324 321 318 317 301 309 306 296 296 300 297 303 303 303 304 307 306 311 315 315 311 313 310 307 313 317 316 311 311 306 310 323 334 337 338 341 341 341 341 341 341 341 341 342 342 341 341 341 340 340 340 340 341 340 344 347 347 346 345 342 341 339 340 342 343 342 342 342 342 342 343 343 344 344 342 343 343 341 340 341 341 342 341 340 340 341 342 341 340 340 341 341 341
319 317 322 324 322 322 313 315 307 300 301 296 295 299 299 300 301 300 300 306 307 310 313 312 313 312 313 312 309 318 318 320 323 322 327 333 336 336 338 340 341 339 341 342 341 341 341 341 342 341 342 341 341 341 341 340 340 340 345 346 346 346 342 341 340 339 341 341 341 341 342 342 341 341 341 342 344 343 343 343 344 344 344 341 341 342 342 341 341 341 340 341 341 341 341 341 341
320 316 323 322 317 317 312 314 300 297 296 292 294 298 301 298 299 302 307 308 310 313 313 313 312 311 309 310 309 312 310 323 325 328 328 334 329 332 337 340 340 340 341 340 340 340 340 341 343 343 343 342 342 342 341 340 340 343 346 346 346 343 341 341 341 340 341 340 341 340 341 341 341 342 345 343 343 342 341 341 342 341 341 341 342 342 342 341 341 341 340 341 340 339 340 341 341
326 321 321 322 315 317 307 306 302 298 296 294 294 300 299 300 305 307 309 311 311 313 313 311 308 315 313 306 309 321 319 320 326 325 324 328 329 334 336 337 338 339 339 340 339 339 339 341 342 343 343 342 342 342 341 341 341 343 344 346 345 343 341 341 341 340 340 340 340 341 342 341 341 343 345 345 343 342 341 341 339 337 337 342 342 341 341 341 341 341 341 341 341 340 340 341 341
323 322 323 320 319 311 309 305 300 299 295 296 293 299 300 306 307 308 309 310 311 313 312 312 309 316 315 314 319 312 316 324 326 329 327 332 336 336 336 337 337 337 339 340 339 339 341 342 343 343 343 343 343 343 342 342 341 342 342 345 346 345 342 342 340 340 340 340 341 341 340 341 340 341 345 345 343 341 339 338 338 342 341 342 341 342 342 342 342 342 342 342 341 340 340 340 341
325 320 330 326 313 317 310 301 300 296 299 301 296 298 303 308 308 309 309 311 311 312 313 311 311 307 312 318 323 317 326 317 325 328 330 331 335 337 337 337 335 336 339 340 339 341 342 341 342 343 342 344 343 342 342 342 341 341 343 343 345 345 343 342 341 341 341 340 340 341 339 338 338 342 345 344 343 342 343 343 343 343 342 341 342 342 341 341 341 341 341 341 341 340 339 339 341
319 319 320 323 315 315 304 297 296 297 298 301 299 300 305 308 309 309 308 308 311 311 312 313 312 313 313 316 323 327 331 329 327 330 333 334 337 337 337 335 334 336 339 340 339 342 341 341 344 344 344 343 343 343 343 342 341 342 345 345 345 345 345 342 341 340 340 340 340 339 336 335 336 338 344 343 343 342 341 342 342 341 341 340 341 341 342 342 342 341 341 340 341 340 339 339 340
324 319 317 307 305 305 299 298 299 300 298 301 302 302 307 308 308 308 307 307 305 306 310 312 312 311 310 317 315 326 332 333 333 335 335 335 337 336 337 334 333 335 339 341 340 341 344 341 344 345 344 343 344 343 343 343 342 341 343 344 345 345 345 343 342 341 340 340 340 340 338 338 337 337 338 339 339 340 339 340 339 340 340 340 340 340 341 341 341 341 340 341 339 338 338 339 340
321 318 320 313 302 306 299 297 300 300 300 302 302 308 313 309 308 308 306 307 307 309 309 310 311 307 305 320 317 324 328 334 334 334 335 336 336 336 336 334 333 337 340 341 340 341 342 340 343 344 344 344 344 344 344 343 342 341 341 343 344 344 344 344 342 341 341 340 340 339 338 336 336 336 337 337 338 339 338 338 339 339 340 339 340 340 341 340 340 341 340 340 339 338 338 339 339
316 315 306 306 307 299 297 297 298 300 299 301 301 305 308 307 306 307 306 305 305 308 310 310 310 306 313 312 319 323 324 333 333 332 334 336 337 337 335 335 336 338 341 340 339 341 342 343 341 343 343 344 344 344 343 342 342 342 340 341 344 345 344 344 342 341 341 340 339 338 338 337 336 336 336 336 336 338 338 338 341 341 341 340 340 340 340 339 340 340 339 338 338 337 338 338 339
308 316 314 307 300 296 297 295 298 299 299 301 302 306 308 307 307 305 305 305 306 307 309 311 307 307 309 321 321 329 330 333 331 329 333 335 336 336 335 335 336 339 341 342 342 342 342 341 341 339 342 343 344 344 343 343 342 342 341 340 342 343 344 343 341 341 340 340 339 338 337 337 337 335 336 337 338 339 342 341 341 340 340 340 340 339 339 339 339 340 339 338 338 337 337 338 338
307 306 311 300 297 296 297 296 299 298 300 301 301 304 307 307 307 305 304 303 305 308 308 309 304 308 307 315 318 326 329 330 331 332 334 336 334 335 335 336 338 340 342 342 342 341 341 341 341 342 338 341 341 343 343 344 343 343 342 341 341 343 343 342 342 340 339 339 338 338 339 338 337 336 337 338 339 341 341 341 340 340 340 339 338 338 338 338 338 338 337 337 337 337 337 337 337
311 311 303 299 297 298 300 299 298 299 299 299 300 304 305 307 305 305 305 304 305 306 307 310 310 309 304 318 323 327 326 329 332 333 334 334 334 335 337 336 338 341 341 341 342 342 341 340 341 341 337 334 336 338 339 341 342 343 343 341 341 342 343 343 342 341 340 340 341 340 339 340 340 338 338 338 337 339 339 339 339 338 338 338 337 337 337 337 337 337 337 336 336 336 336 336 336
313 313 307 299 303 299 298 299 299 296 297 300 302 304 306 306 307 307 304 303 304 304 309 310 310 310 316 320 320 321 325 330 332 333 333 333 335 335 335 336 337 340 341 342 341 342 341 340 340 340 338 339 338 334 333 337 340 342 342 342 342 342 342 342 342 342 342 339 337 336 337 337 339 338 337 338 336 336 338 338 337 337 337 337 336 336 336 336 336 336 336 336 336 336 335 336 335
310 312 307 305 300 300 300 298 299 297 297 301 302 304 305 308 309 306 305 303 302 308 309 314 313 306 301 306 315 320 326 330 332 332 332 333 334 335 336 336 337 338 339 340 341 341 341 341 340 341 340 340 340 339 338 335 335 338 339 339 339 340 338 337 337 337 336 335 334 332 332 331 331 331 331 332 334 333 332 331 337 337 335 335 335 335 336 335 335 336 336 336 335 335 334 334 333
316 309 306 303 297 297 300 298 300 299 297 301 302 305 304 304 307 305 303 305 305 311 311 305 311 307 318 319 320 326 330 331 332 332 331 331 333 335 335 335 334 336 338 338 339 340 341 340 340 339 339 339 337 337 338 337 331 332 336 337 336 335 334 333 333 332 328 327 327 328 328 328 327 326 325 327 327 330 329 329 332 335 335 335 335 335 335 335 335 335 335 335 335 333 332 331 331
316 311 301 299 295 297 299 298 298 295 299 301 304 305 302 302 306 304 304 307 305 304 307 309 307 316 325 325 327 330 331 331 330 331 329 330 330 329 332 331 332 333 337 336 337 338 339 340 341 340 339 339 337 337 338 338 332 329 329 328 329 330 330 329 327 323 321 321 322 323 325 330 329 328 328 327 323 325 322 326 331 335 334 334 334 334 334 334 334 334 334 333 332 330 326 326 324
313 303 300 297 297 298 301 300 300 302 300 300 302 304 303 301 303 304 306 306 305 304 307 309 315 317 327 328 330 331 331 330 330 328 326 327 329 327 327 329 329 329 332 333 336 338 338 339 340 341 339 339 339 339 339 339 335 335 335 332 331 327 325 323 326 329 331 327 324 325 329 329 329 328 328 330 327 327 325 323 326 331 333 333 333 333 333 332 332 332 332 332 331 330 325 324 322
306 301 300 297 299 300 302 300 300 299 300 302 303 304 304 303 304 303 301 301 302 301 304 307 310 313 322 328 329 329 329 328 328 327 326 325 325 326 327 328 329 330 330 332 334 336 337 338 340 340 339 340 339 340 340 338 336 335 336 335 335 330 330 330 331 331 330 330 328 329 329 327 328 327 327 328 324 321 323 323 325 328 330 329 330 331 331 331 330 330 330 329 330 328 321 324 324
303 303 298 298 304 301 302 302 301 302 304 302 302 303 303 304 305 304 301 301 301 300 300 302 307 309 319 326 328 327 328 327 328 327 326 326 325 326 326 327 328 328 330 331 332 336 337 337 338 339 339 340 339 339 339 337 335 334 333 333 334 333 332 333 333 332 333 331 330 330 327 328 328 325 325 326 326 324 322 320 321 322 324 324 323 325 327 328 328 327 327 328 327 322 323 324 325
304 301 299 302 302 300 301 302 302 301 304 303 303 303 302 303 303 302 301 299 299 301 303 304 304 310 318 325 326 326 326 326 327 327 326 326 327 327 327 327 327 328 329 332 332 334 334 336 337 337 339 340 339 338 338 337 334 334 334 333 332 331 332 332 333 332 333 332 332 332 328 328 328 327 326 326 325 326 324 324 324 324 323 320 321 322 322 320 322 320 319 319 321 323 325 325 326
308 300 303 301 301 299 302 301 300 302 302 304 302 301 301 304 303 301 301 297 296 300 304 305 306 313 319 323 325 325 325 325 325 326 326 326 327 326 328 328 329 329 329 329 330 332 333 335 336 337 339 339 339 338 338 337 336 334 333 333 332 331 332 330 330 331 331 331 331 330 328 327 326 326 324 324 325 325 325 324 325 325 323 323 322 319 320 318 319 321 321 322 322 324 322 323 324
298 301 302 300 300 299 302 301 299 299 304 302 301 302 302 301 301 302 301 301 301 305 304 309 310 317 321 326 325 323 324 324 325 325 326 327 327 328 328 328 328 328 328 329 330 331 333 334 336 337 337 338 338 338 337 336 335 335 334 333 332 330 330 330 329 330 331 332 332 331 328 326 325 324 324 324 324 324 323 323 323 322 322 321 321 321 320 320 320 321 321 323 320 321 321 320 322
301 298 300 299 301 299 300 299 300 299 301 301 303 303 300 299 297 302 301 302 303 304 305 309 315 319 322 323 322 323 324 324 325 327 328 328 329 328 328 328 329 329 329 329 329 330 330 332 335 336 337 337 338 338 337 336 335 336 335 332 333 329 329 329 329 329 332 331 330 330 327 327 326 325 325 324 323 323 323 323 322 321 320 320 321 319 320 318 318 319 319 320 320 320 320 320 320
299 298 302 300 300 300 299 299 299 301 300 299 301 300 299 300 299 300 300 302 305 307 309 308 316 320 322 322 321 323 324 325 326 327 329 329 330 330 330 329 330 330 329 329 330 329 331 332 334 335 336 337 338 338 336 336 336 336 335 333 332 329 330 329 329 330 329 329 330 330 327 327 327 327 326 325 323 322 322 321 321 320 321 320 319 318 320 318 318 318 319 319 319 319 319 320 319
301 301 301 301 299 299 299 299 300 300 300 301 298 298 298 298 300 299 300 302 307 308 308 308 311 316 319 320 322 323 324 325 326 326 328 329 329 329 329 329 330 330 330 330 330 330 332 333 332 334 335 336 337 337 336 335 335 334 335 334 332 330 329 330 329 329 329 327 328 329 329 328 328 327 327 325 324 322 322 321 320 319 320 319 318 317 318 319 318 317 317 317 318 317 318 320 318
301 301 301 300 299 299 300 300 299 301 301 300 298 297 298 299 300 295 301 303 306 306 306 308 309 309 313 317 320 322 324 324 325 327 327 328 328 328 328 329 329 330 331 330 331 331 331 332 332 333 334 334 336 336 335 335 336 335 335 335 333 331 331 331 330 330 329 328 327 329 329 329 327 329 327 326 325 323 321 320 319 319 318 318 319 318 318 318 318 317 317 316 316 316 317 318 317
302 300 299 298 300 300 299 300 299 299 299 300 300 297 298 299 299 295 299 300 303 302 305 305 306 308 309 312 315 319 322 324 326 326 325 326 326 327 327 328 329 329 330 330 332 332 332 333 333 333 333 334 335 336 335 335 335 335 336 336 334 333 332 330 330 330 328 328 328 331 329 328 327 327 328 328 326 323 321 320 319 319 318 317 318 317 317 317 317 317 317 317 317 316 316 317 317
301 300 296 297 298 297 299 298 299 300 298 299 301 296 296 296 295 299 300 300 301 301 303 305 304 306 309 311 313 314 316 320 324 325 326 327 328 329 328 330 330 328 329 331 332 331 332 333 333 334 334 333 334 334 335 335 335 336 335 335 335 334 333 332 330 329 330 330 329 329 328 328 327 326 325 327 326 324 322 321 319 318 319 318 316 317 317 316 316 316 316 317 315 316 315 315 317
302 300 297 295 295 294 298 300 298 298 298 300 300 288 291 295 299 300 300 300 300 300 299 304 304 303 307 309 312 314 316 317 321 324 326 327 328 329 328 330 330 329 328 329 331 331 333 334 334 335 334 334 334 335 334 335 335 336 335 335 335 335 333 333 331 330 330 330 330 328 328 327 326 327 325 325 326 324 323 321 320 319 318 317 317 317 316 315 315 314 314 314 314 313 313 312 314
295 298 298 293 290 291 298 298 297 297 298 298 299 290 291 297 298 299 300 301 300 298 298 301 303 303 303 307 310 314 316 318 321 324 326 328 328 328 328 329 329 329 328 329 330 331 331 333 333 334 332 334 333 335 332 334 334 335 334 334 335 335 333 332 331 331 331 331 331 330 330 327 326 326 325 324 325 324 322 319 319 318 320 318 316 316 316 314 314 314 313 314 312 313 313 312 313
296 292 289 293 290 295 296 300 298 295 296 298 297 291 291 295 296 298 299 299 299 297 298 299 302 303 304 307 310 312 314 318 321 324 326 327 327 326 327 327 328 329 329 329 331 332 331 332 332 332 332 332 333 334 333 332 332 333 333 330 334 336 334 333 331 331 331 332 331 330 330 329 327 327 323 323 322 322 320 320 319 319 319 319 317 315 316 315 314 315 315 315 312 312 312 313 312
294 291 290 289 291 292 294 296 299 300 297 298 295 290 294 294 296 298 299 298 298 297 297 298 301 303 304 306 308 308 310 315 318 321 323 324 325 325 326 326 327 329 329 330 330 330 330 331 330 330 331 332 332 333 332 330 331 331 332 333 334 335 334 333 330 331 331 332 331 329 329 329 328 327 325 324 322 323 322 321 319 320 318 317 315 314 315 315 313 315 313 314 313 310 312 311 311
289 292 289 293 290 291 290 295 298 300 297 292 294 291 292 296 296 297 299 299 298 296 296 298 299 300 303 304 306 306 307 310 316 317 319 323 324 325 327 324 326 328 329 330 330 331 330 330 330 330 331 332 331 332 333 332 332 331 330 332 332 335 334 333 332 331 331 332 331 330 329 328 327 327 327 325 323 323 322 321 319 319 317 316 315 314 314 314 314 314 312 312 314 312 310 311 311
288 289 288 289 291 293 291 290 294 297 296 294 293 291 293 295 296 296 297 298 298 297 297 296 297 298 300 302 303 304 304 306 312 317 319 322 324 325 326 326 326 327 329 330 330 330 329 329 330 329 330 331 330 331 331 332 332 330 329 329 331 332 334 334 333 332 331 331 331 332 331 329 327 328 327 325 324 323 321 321 320 318 316 315 314 314 313 313 313 312 313 311 312 313 311 310 311
292 293 291 291 289 290 290 293 296 297 293 292 293 291 293 295 295 296 296 297 297 296 296 297 297 297 298 300 300 300 302 303 307 314 319 321 324 325 325 327 327 327 328 329 327 329 329 329 330 330 330 331 330 330 331 331 331 329 327 326 326 328 330 330 333 332 332 331 331 331 331 330 329 327 327 326 325 323 322 320 321 318 315 315 314 313 312 311 311 311 311 312 311 310 311 306 305
294 294 293 292 292 293 293 294 295 294 294 292 292 293 293 294 295 297 297 296 295 295 296 297 297 298 298 297 299 300 301 301 304 308 315 318 321 324 325 326 326 327 327 327 327 328 329 329 328 328 330 330 329 328 329 330 328 326 324 325 324 325 328 329 330 331 331 331 330 330 329 328 328 327 326 326 325 322 322 321 320 315 315 314 314 314 313 312 312 312 310 311 311 308 307 303 303
293 293 292 291 293 289 294 293 294 296 293 290 292 292 293 294 295 296 297 296 295 296 295 296 298 298 299 298 298 300 301 304 307 307 309 315 318 321 323 323 322 324 326 327 327 327 329 328 328 329 330 330 329 329 328 329 328 327 326 326 324 324 324 326 328 330 331 331 330 329 328 328 328 328 327 328 327 324 321 319 318 315 314 314 315 315 313 311 312 312 312 309 308 308 305 303 303
293 292 292 290 291 292 294 293 295 295 292 289 291 291 292 294 295 296 295 296 297 298 298 298 298 298 299 299 299 300 300 301 307 306 308 312 316 319 321 321 323 324 325 326 326 327 328 328 328 328 329 329 329 328 328 328 328 328 327 326 326 323 325 326 326 327 331 331 331 331 330 329 329 329 328 326 326 323 321 319 319 318 316 315 314 314 312 313 312 311 311 311 306 305 305 305 305
292 291 289 288 294 289 288 291 294 294 292 292 290 290 292 295 295 295 297 298 298 299 300 300 299 299 299 299 300 301 300 302 307 305 306 307 311 314 316 317 320 321 321 322 324 325 327 327 327 328 329 329 328 327 325 327 327 327 327 326 327 326 324 324 327 326 327 330 330 330 330 330 329 328 327 325 324 323 322 322 322 320 319 317 316 314 312 312 310 309 309 310 309 305 304 304 305
295 296 293 291 292 292 291 289 292 292 293 292 290 289 289 291 292 293 296 298 298 298 298 299 300 300 299 301 301 302 301 302 306 305 305 305 306 307 309 312 314 317 318 320 321 323 326 326 327 328 328 328 328 326 325 325 326 325 325 323 322 322 321 321 322 323 326 326 327 328 329 328 327 327 328 327 325 324 323 323 322 321 319 316 315 313 311 312 311 311 311 310 309 309 306 303 303
290 296 297 294 294 291 292 291 289 288 287 291 291 282 281 287 291 292 294 294 296 297 297 299 300 301 301 301 302 303 306 303 305 306 305 305 306 306 306 306 307 310 313 316 320 322 322 323 325 326 326 327 327 326 325 326 325 325 324 323 321 318 317 320 320 322 325 326 326 325 327 328 327 327 328 329 328 325 325 325 323 320 317 314 313 313 312 311 311 311 311 311 309 308 308 306 303
289 290 297 294 293 293 291 290 291 283 280 289 292 282 279 289 290 291 292 293 294 295 297 299 300 301 301 301 301 301 303 303 304 304 304 304 305 305 305 305 305 306 308 310 314 318 320 321 323 324 325 325 326 325 326 324 324 324 325 324 323 321 320 319 318 319 320 321 327 328 329 329 329 329 328 329 329 328 327 325 322 320 318 316 313 312 311 311 312 312 311 309 309 307 307 307 308
287 294 298 295 295 293 292 292 291 289 291 291 290 290 281 281 288 293 292 293 292 293 295 296 297 298 300 300 300 300 301 301 303 302 302 302 304 304 304 305 305 306 305 307 309 314 318 319 321 322 323 323 325 325 325 324 324 323 322 322 320 320 320 319 320 321 320 317 318 317 323 326 328 328 328 329 329 327 325 324 324 321 319 319 314 313 313 313 312 312 311 311 309 309 309 308 308
292 295 298 295 295 295 294 292 288 290 286 282 285 290 280 279 287 293 292 291 291 291 293 295 297 297 298 299 300 300 300 301 303 303 301 301 301 301 302 304 305 305 306 306 307 309 313 315 318 320 321 321 323 323 324 324 323 322 321 321 318 318 319 319 319 320 318 316 317 317 319 319 321 324 325 324 324 325 322 323 321 320 320 319 316 315 315 314 313 313 311 310 309 309 309 309 308
294 297 299 299 298 297 296 289 289 286 283 280 283 288 279 280 288 289 291 289 289 291 293 295 296 297 297 298 298 300 300 300 301 301 302 303 304 303 302 302 303 303 304 306 306 307 309 310 314 318 318 319 321 321 322 322 321 320 320 318 318 316 315 314 314 316 317 317 318 317 318 320 320 321 321 322 324 325 325 324 323 322 320 320 315 316 315 314 314 313 312 311 310 309 310 308 308
297 297 295 294 293 291 291 289 285 285 279 280 287 289 286 279 285 287 287 290 291 292 293 296 298 298 299 299 299 299 300 301 301 302 302 303 303 302 301 301 302 304 303 303 304 304 305 307 309 312 315 317 318 321 320 321 320 319 319 318 317 316 314 314 313 314 314 314 316 313 312 313 315 317 321 323 323 325 325 321 323 322 322 320 317 316 315 314 314 313 313 312 311 310 309 309 308
298 294 290 290 287 287 285 284 285 280 277 283 282 287 289 278 281 291 291 292 292 292 292 294 296 297 298 298 298 298 298 299 300 300 302 302 302 302 302 301 302 305 304 302 303 305 305 306 308 310 311 314 315 319 318 319 319 317 315 316 317 316 316 317 315 314 312 312 312 311 311 313 314 317 319 319 321 323 323 322 320 321 321 320 318 317 316 315 315 314 313 313 312 311 310 309 309
295 292 290 284 281 281 277 282 276 277 277 281 283 285 283 283 287 290 291 292 292 293 295 294 296 297 297 298 298 299 299 299 300 302 303 302 302 302 301 303 305 305 304 304 306 306 306 307 308 309 310 311 315 316 316 315 316 316 316 315 315 317 316 316 314 313 311 312 311 311 311 311 312 316 316 319 317 319 321 321 320 319 318 319 319 318 317 316 315 314 313 313 312 311 310 309 309
292 289 284 282 279 276 272 276 279 279 280 281 282 285 280 284 287 294 294 295 292 292 295 296 296 297 298 299 299 300 300 300 301 302 303 303 305 304 304 305 306 305 305 307 307 308 308 309 308 309 310 312 313 314 314 314 314 315 315 315 315 316 315 315 315 315 313 313 315 312 313 312 313 314 314 315 318 319 319 320 320 320 320 319 318 318 317 316 315 314 313 312 311 312 311 309 309
291 293 290 283 283 279 273 277 274 274 278 280 282 279 278 279 284 292 294 293 293 292 294 295 296 297 297 297 298 299 300 301 301 301 303 305 305 304 305 306 306 306 307 307 308 309 309 309 309 309 311 312 313 313 313 313 313 314 314 314 314 315 315 314 313 316 315 314 314 315 315 316 316 315 315 315 315 316 317 318 319 319 319 318 317 316 316 315 314 313 312 311 311 310 309 309 308
291 293 295 288 284 288 280 282 282 278 275 277 277 277 282 286 293 292 291 292 293 293 294 293 293 295 296 297 297 298 299 299 300 301 301 302 304 304 305 305 306 306 306 306 307 309 309 310 310 311 312 311 311 310 311 313 312 313 313 313 314 313 314 315 313 313 314 315 316 316 316 315 316 313 312 314 315 315 314 314 316 317 316 316 316 316 315 314 313 311 310 309 309 310 309 308 308
288 290 284 288 293 286 281 281 282 281 279 276 281 281 284 289 290 293 292 291 292 292 291 292 292 294 295 296 300 299 298 299 300 302 300 301 302 303 304 304 304 306 306 307 308 309 310 311 311 311 310 309 309 308 309 310 312 312 312 313 312 311 311 312 313 313 313 312 313 313 311 310 311 311 312 311 311 312 313 313 313 312 313 313 312 312 313 313 313 311 309 307 308 308 308 308 308
290 283 289 294 294 292 286 280 280 279 276 278 280 278 279 283 280 290 288 289 289 289 290 291 293 294 294 296 299 299 299 300 300 300 301 301 302 303 304 304 305 305 306 307 308 308 309 311 311 310 309 309 309 309 310 310 311 311 313 315 316 314 310 309 310 310 310 311 311 311 311 311 310 309 310 311 309 309 309 307 309 308 308 310 310 310 310 310 310 308 309 309 308 308 307 306 306
291 289 297 289 282 281 283 282 275 274 273 276 279 279 279 280 285 286 287 287 289 290 290 291 294 293 294 298 299 299 298 298 298 299 299 300 301 302 302 303 303 305 306 306 308 308 309 308 310 311 310 310 310 310 309 310 309 311 313 313 313 312 310 310 310 311 310 311 309 308 308 307 309 309 308 308 307 307 306 305 305 304 304 305 305 307 307 307 307 306 306 306 306 307 305 305 306
295 294 290 293 287 285 281 281 282 281 275 276 275 279 276 286 286 288 288 290 290 289 289 290 292 293 295 298 298 297 297 299 300 300 301 301 301 301 302 302 302 302 303 304 305 305 306 307 309 310 310 310 310 309 309 310 308 309 310 310 309 309 308 308 308 308 308 308 309 308 308 308 307 307 306 305 303 303 302 301 300 301 301 301 302 302 301 302 304 305 304 305 305 305 305 305 304
285 284 284 287 287 288 286 285 282 280 277 276 276 275 280 286 291 290 291 290 291 290 292 292 293 294 296 297 298 298 299 301 300 300 301 301 301 301 301 301 301 301 301 302 303 304 304 304 305 306 307 308 307 307 306 306 306 306 306 306 307 307 307 306 306 306 306 307 307 306 306 306 304 304 303 302 301 301 301 300 300 299 299 299 299 299 300 300 299 299 300 299 299 303 304 304 304
289 288 286 288 284 282 279 279 285 281 280 276 277 274 281 291 292 291 291 292 292 292 292 295 295 294 295 298 299 300 300 300 300 301 301 301 301 301 301 302 300 301 302 302 303 304 304 304 305 305 306 305 305 305 305 305 304 305 304 304 304 304 303 303 303 303 303 303 303 302 302 299 301 300 301 301 301 300 300 300 300 299 299 297 298 300 298 299 299 297 297 303 302 303 303 303 303
Wind_Speed
9 8 4 4 4 4 4 3 2 1 2 5 4 1 2 5 4 4 5 4 6 3 4 7 6 5 5 3 11 12 9 7 2 1 2 4 5 5 11 13 12 11 11 8 7 7 7 9 11 11 11 10 9 9 9 8 9 9 12 14 14 12 13 13 12 14 16 16 15 15 15 16 16 17 17 17 18 18 17 17 17 17 18 18 19 20 20 20 20 19 18 18 17 17 17 17 16
7 8 7 4 3 2 2 2 1 3 3 3 5 7 3 3 4 6 5 3 5 3 3 4 6 3 2 5 3 8 13 10 8 8 7 6 6 8 10 12 13 13 10 8 7 7 7 7 10 11 11 11 11 10 8 9 10 10 16 15 14 12 13 13 12 12 16 16 15 15 15 15 16 16 15 16 17 17 16 17 17 18 18 18 18 19 19 19 19 18 18 18 17 17 16 16 15
7 7 8 4 3 2 3 0 2 4 4 2 3 5 4 3 6 5 10 10 9 5 5 5 3 2 1 2 8 7 5 10 12 9 7 7 9 9 10 11 10 12 12 8 8 7 6 7 8 10 11 11 10 9 8 9 8 13 15 14 13 13 13 13 13 12 14 15 15 15 16 15 15 16 16 17 17 17 17 16 16 17 18 18 18 18 18 18 18 18 18 17 17 17 16 15 14
4 6 4 4 2 3 2 1 3 3 5 5 5 3 4 4 9 12 10 9 6 4 4 3 2 0 6 8 6 12 8 6 7 8 8 7 5 10 10 10 11 10 8 9 8 7 6 8 10 11 11 11 10 9 9 10 10 13 13 14 12 12 13 13 13 13 13 13 14 15 15 15 15 16 16 16 17 15 16 16 15 14 16 18 17 17 17 17 18 18 18 18 17 17 16 15 14
3 4 4 3 1 2 1 2 3 3 3 3 5 3 5 10 11 10 8 6 4 3 3 2 3 2 0 4 4 2 5 8 6 4 6 6 9 8 8 9 9 9 9 10 10 8 7 11 10 10 12 12 11 9 9 9 9 12 12 14 12 12 13 13 13 13 13 14 16 16 15 14 13 15 16 15 17 16 15 14 15 17 17 16 17 17 17 17 17 17 17 17 17 16 16 14 14
6 5 3 1 1 0 1 2 3 4 2 1 4 4 6 11 12 10 8 5 4 2 2 2 2 4 2 5 3 3 2 2 6 4 7 9 11 10 8 6 10 9 10 11 10 7 7 11 10 11 12 12 11 9 9 9 10 10 11 12 13 11 12 13 12 12 13 13 15 14 14 13 13 15 16 16 16 16 16 16 17 16 16 15 15 16 16 17 17 17 17 17 17 16 15 14 13
3 2 1 1 3 1 2 4 5 2 4 3 4 4 9 11 10 11 9 5 2 2 2 1 2 7 5 2 7 5 7 6 6 6 7 8 11 9 8 7 7 11 11 10 9 8 8 12 11 12 11 11 11 10 9 9 9 11 13 12 12 11 11 12 13 12 13 13 14 14 13 12 12 14 15 14 14 14 15 16 15 15 16 16 16 16 16 16 16 17 16 16 16 15 15 13 13
2 0 0 2 2 1 3 5 5 1 1 4 3 3 11 11 9 8 8 5 3 2 1 4 1 2 3 6 5 1 5 6 11 13 12 9 10 9 5 8 7 10 12 11 9 7 9 11 11 11 11 12 10 10 10 9 9 9 10 12 12 11 10 11 13 12 12 13 13 13 13 12 12 12 12 12 13 14 14 13 14 15 14 15 15 16 15 16 16 16 16 16 15 15 13 12 13
2 1 0 1 3 2 3 5 2 4 4 2 2 6 12 9 7 7 7 3 6 3 5 2 1 0 2 9 7 5 3 9 11 12 10 11 11 8 5 7 7 10 12 11 9 8 6 11 11 11 10 11 10 10 9 9 9 9 10 12 12 12 11 11 13 12 12 12 13 12 12 11 11 11 11 12 13 12 12 13 13 14 14 14 15 15 15 15 15 15 15 15 14 13 12 11 12
2 1 1 2 1 3 3 4 4 2 5 4 4 5 7 5 6 7 5 7 4 5 5 3 2 1 9 10 8 4 3 9 11 10 9 11 9 6 7 7 8 12 13 10 9 7 6 11 10 10 10 9 9 10 10 8 9 9 9 10 13 12 11 11 12 12 12 12 11 12 11 11 11 11 11 11 12 12 11 13 14 14 14 14 14 14 15 14 14 14 14 14 13 13 12 11 11
2 2 1 1 2 3 4 5 2 4 5 3 4 3 5 4 6 5 4 5 4 4 5 4 2 2 3 5 4 2 5 10 10 11 9 10 8 6 7 7 8 11 12 11 9 7 7 7 10 10 9 9 8 9 8 7 9 8 8 9 11 12 11 10 11 11 11 11 11 11 10 11 11 10 11 12 12 13 15 14 13 13 13 14 14 14 14 13 13 13 14 13 13 12 12 10 11
2 2 1 2 4 4 4 5 3 5 5 5 3 3 0 3 4 5 5 7 5 7 3 4 2 3 3 5 2 4 7 7 9 9 9 9 6 6 6 6 5 11 11 10 11 8 7 7 6 8 9 9 9 8 6 6 8 7 8 8 9 11 10 11 10 10 10 10 10 10 10 11 10 11 11 12 13 12 14 14 13 13 13 13 13 13 13 13 12 12 12 12 12 12 11 11 11
1 2 3 2 3 3 1 2 6 5 4 4 7 3 2 4 3 4 5 5 4 6 3 4 3 1 1 3 3 6 8 7 10 9 9 8 5 4 6 7 5 10 9 10 11 9 8 7 7 6 7 11 10 8 7 7 7 7 7 8 8 9 8 8 10 9 9 9 11 11 10 9 10 11 11 11 12 11 12 11 12 12 12 12 12 12 12 12 12 11 11 11 11 11 11 11 10
1 2 2 2 2 3 4 1 2 5 4 4 4 5 3 4 3 3 5 6 4 3 1 4 0 0 7 6 4 5 7 8 11 9 8 9 6 4 6 7 4 10 6 7 10 10 8 7 7 6 7 7 7 7 7 7 7 7 7 7 7 8 8 8 8 8 9 10 9 9 9 9 9 9 10 9 9 9 10 10 11 12 11 12 11 11 11 10 11 11 10 10 11 11 11 10 10
2 3 2 2 3 2 2 1 1 4 1 6 5 7 4 3 1 3 1 5 3 2 1 5 1 1 1 3 5 7 9 11 11 9 7 8 6 5 5 7 4 7 7 6 9 10 9 8 8 7 6 6 7 5 4 6 8 8 8 8 8 8 8 8 8 9 9 10 9 9 9 9 9 9 10 10 9 10 9 8 10 9 11 11 11 10 10 10 10 10 10 10 10 10 10 10 9
1 3 2 1 3 3 1 3 2 1 2 3 5 7 5 3 3 2 2 2 2 2 1 1 3 2 3 5 8 12 12 12 10 9 7 9 5 4 5 6 4 6 6 4 7 7 8 8 8 7 6 7 6 6 5 5 7 9 8 8 8 9 9 8 8 8 9 10 10 10 10 7 7 7 10 8 10 10 10 8 10 10 10 11 10 10 9 9 9 9 10 10 10 9 9 9 7
0 1 2 1 5 5 3 3 4 1 4 4 5 8 6 4 0 3 1 3 7 2 2 4 2 2 6 5 14 16 13 11 10 9 7 8 5 5 3 4 4 4 4 4 5 5 7 8 8 7 7 8 7 8 7 6 7 10 7 8 9 9 8 8 8 8 8 7 8 9 8 5 4 4 5 5 8 6 9 11 10 10 10 10 10 10 10 9 9 10 9 8 8 8 6 7 6
0 1 2 3 4 3 3 4 4 4 5 4 7 7 7 6 3 2 2 1 3 4 6 4 9 7 5 5 10 12 12 12 10 10 8 9 7 5 4 3 4 5 4 4 4 6 6 8 9 7 6 8 6 7 6 6 6 7 7 6 5 5 6 7 6 4 5 3 6 6 5 6 5 3 5 6 5 5 7 10 11 11 11 11 11 11 10 9 8 7 6 5 6 6 6 3 3
2 2 2 3 3 2 2 4 5 3 4 9 5 5 6 6 8 3 3 4 5 3 4 5 7 5 4 5 10 11 11 10 11 9 10 10 9 10 7 6 5 5 5 4 5 6 5 6 8 8 6 7 5 7 6 7 6 5 6 6 6 6 5 4 4 5 4 4 3 5 5 6 3 5 4 5 6 8 7 10 11 11 10 10 10 10 9 9 8 6 3 1 1 2 1 1 2
4 2 2 5 2 3 4 5 3 5 10 8 6 6 3 9 6 4 3 7 5 6 6 6 7 8 8 8 9 10 9 10 11 10 10 10 8 11 10 8 8 6 6 5 5 4 7 6 6 8 7 8 6 6 7 7 6 5 6 5 6 6 5 5 4 5 4 5 5 6 3 7 6 5 8 12 9 5 6 8 10 10 9 10 10 7 7 7 7 2 2 3 3 2 3 2 3
2 2 2 1 1 3 4 6 4 4 3 7 6 5 2 8 4 5 4 6 6 5 6 9 10 12 11 11 11 9 10 11 11 10 10 9 7 7 8 8 8 7 7 6 5 5 6 6 6 6 7 8 6 6 8 7 7 6 6 6 6 6 6 6 5 5 4 6 6 1 4 5 6 6 5 5 6 5 4 4 5 4 4 3 6 4 4 3 3 2 2 2 3 4 4 4 4
1 4 1 4 5 3 3 5 6 3 3 7 5 7 4 4 6 4 5 4 4 3 5 11 10 15 15 13 11 9 11 10 12 11 12 12 11 9 8 7 7 6 7 7 7 6 5 6 6 5 7 6 7 6 7 7 8 6 6 7 7 6 7 6 5 6 4 3 3 2 4 4 6 6 4 4 3 6 5 5 5 5 4 4 4 2 4 3 2 3 3 4 4 6 3 3 4
3 4 2 3 3 2 0 2 3 4 1 5 5 3 5 3 2 4 4 3 1 0 4 5 2 18 16 14 12 11 10 11 12 12 12 13 11 9 8 8 9 8 7 8 8 7 7 6 7 6 6 6 7 5 6 7 6 5 6 7 6 6 7 5 5 6 5 5 3 3 5 3 5 6 5 5 3 7 6 6 6 6 5 5 4 4 4 4 4 5 4 6 4 1 3 1 2
3 3 3 2 4 3 4 2 2 3 4 4 3 6 4 4 3 4 4 4 5 4 5 5 11 15 14 13 12 14 13 13 14 12 11 11 12 11 9 9 8 6 7 7 8 7 7 8 8 7 6 6 6 5 5 6 5 4 6 6 6 5 5 3 2 4 5 6 5 2 2 6 4 6 5 4 2 4 4 4 4 5 5 4 5 3 5 3 3 3 2 0 2 1 1 2 2
5 6 1 1 4 1 2 1 3 1 3 4 6 5 3 3 1 2 5 5 5 5 4 4 10 13 12 12 12 11 11 10 10 10 8 7 8 7 6 6 8 7 8 7 7 6 9 8 8 8 7 7 6 6 5 6 5 4 5 5 5 6 5 4 2 1 2 6 5 3 4 3 6 5 5 4 3 3 3 3 2 4 4 3 4 2 5 3 3 3 1 1 1 1 2 1 2
5 3 2 2 3 3 2 3 2 2 2 0 3 3 5 3 3 1 4 4 6 6 6 4 5 9 11 11 11 11 11 12 11 10 11 8 8 9 7 5 7 8 8 7 7 6 7 7 8 9 8 8 7 6 6 6 6 5 5 6 4 6 5 5 2 0 1 3 5 4 3 3 3 6 6 6 5 3 3 2 2 3 3 3 3 3 5 4 5 3 2 3 3 3 3 4 3
3 3 2 3 3 3 1 2 3 1 2 1 2 4 3 2 1 3 5 6 7 7 7 4 6 5 7 8 9 9 11 11 12 10 9 8 8 9 8 7 5 7 8 8 7 6 6 7 6 8 8 8 6 7 5 5 5 5 5 6 6 6 6 5 4 1 1 1 2 6 4 3 3 2 6 6 6 4 3 3 3 3 3 3 5 3 4 4 4 4 3 3 2 1 2 3 4
2 4 4 3 1 1 1 3 4 3 1 2 3 2 4 1 1 2 4 4 7 9 7 6 5 6 5 7 8 7 8 8 9 9 12 11 8 8 8 8 6 6 8 9 8 7 7 8 7 5 6 7 7 7 6 6 6 5 5 6 6 6 5 5 5 5 3 3 3 4 5 4 4 3 3 5 6 5 4 4 4 3 4 3 4 3 3 4 3 3 3 2 2 3 3 2 3
3 3 2 2 3 2 2 3 4 2 1 4 2 3 1 3 5 6 5 4 3 6 8 7 6 6 6 5 6 6 7 8 8 8 9 8 7 8 9 8 8 7 5 8 9 9 9 9 8 7 5 5 5 7 7 6 6 6 5 6 6 7 6 5 5 5 6 4 4 2 5 5 4 4 3 3 6 6 5 5 5 4 4 4 4 4 3 3 1 1 1 0 1 1 1 1 2
1 3 2 2 3 2 4 3 3 1 1 1 1 1 5 9 13 6 7 7 4 4 6 6 6 5 6 6 6 6 5 6 9 9 8 8 8 8 9 9 9 8 7 6 7 10 8 7 8 7 8 7 7 5 6 6 6 6 6 6 6 7 6 6 6 6 6 6 6 3 3 4 4 5 4 2 5 6 5 5 5 5 5 4 4 3 4 3 2 2 2 1 3 3 3 3 2
4 3 4 3 4 3 7 3 4 2 1 2 1 2 3 7 7 5 5 7 9 7 5 7 6 5 5 6 6 6 7 6 8 9 8 9 9 8 9 8 9 8 6 6 8 9 8 7 8 8 9 8 8 8 6 7 6 6 6 6 7 7 6 6 6 6 6 6 6 5 3 3 4 4 4 2 4 4 5 5 5 5 5 4 6 4 4 3 3 3 3 4 3 4 3 3 3
3 4 5 3 6 0 4 3 9 3 1 3 1 2 7 3 5 4 3 3 4 5 6 6 6 6 5 5 6 6 6 7 6 7 8 9 9 7 9 9 9 9 8 7 7 8 9 7 9 7 10 9 10 10 7 6 7 7 6 6 6 7 7 6 6 7 6 6 5 5 5 5 5 5 3 3 3 3 5 6 6 5 4 5 5 5 4 5 5 4 4 4 3 4 3 4 3
4 6 2 4 4 3 2 2 4 4 5 1 4 3 1 1 1 3 1 3 4 3 4 6 7 7 7 5 5 5 5 7 6 7 8 8 7 6 8 8 9 9 8 7 7 7 7 7 9 8 11 10 8 9 6 5 4 6 6 7 6 7 7 6 6 6 6 6 6 6 7 7 7 6 4 4 5 5 6 6 6 6 5 5 5 4 5 5 4 4 4 5 4 4 4 4 4
5 4 3 4 6 5 2 2 1 1 5 4 5 2 3 1 5 4 3 3 4 4 5 5 6 6 7 6 6 6 6 6 9 9 9 9 7 7 7 8 8 9 7 8 8 9 9 8 8 8 9 10 7 7 7 5 4 4 4 6 5 7 7 7 6 5 6 6 6 7 7 7 6 6 7 6 6 5 5 5 4 6 6 5 5 4 5 4 4 4 4 3 4 3 3 4 4
3 3 3 3 6 7 5 6 5 3 4 4 5 4 9 2 4 4 6 5 5 6 5 5 4 5 6 7 7 7 7 8 9 9 9 10 9 8 7 7 7 8 8 8 8 8 7 7 8 8 7 10 8 7 7 6 4 4 3 4 5 6 7 6 7 7 7 6 6 6 7 8 8 8 7 6 6 6 5 5 5 5 6 6 5 4 4 5 4 3 4 3 3 4 3 2 4
5 6 6 6 3 4 2 1 1 8 6 4 6 8 10 10 4 4 5 5 7 6 6 5 5 5 5 7 7 7 7 8 7 8 10 9 9 9 8 8 8 8 8 8 8 8 9 7 8 8 7 8 7 7 7 7 6 6 7 5 5 6 6 7 7 8 7 7 7 6 6 6 8 8 7 7 7 6 6 5 5 5 6 6 6 6 5 6 5 4 4 4 4 3 0 1 3
5 7 8 9 5 2 3 2 0 2 1 6 5 5 6 6 7 7 8 6 5 6 6 6 5 5 5 5 6 8 8 8 6 8 10 11 10 10 9 8 8 8 8 9 9 9 9 9 9 11 9 8 9 9 8 9 9 8 6 7 7 6 7 6 7 7 8 8 8 8 7 7 7 8 7 7 7 6 6 6 5 5 6 7 6 7 5 4 5 5 4 4 4 4 2 2 2
6 5 7 6 5 2 2 2 2 1 1 3 5 5 7 6 6 5 7 6 9 8 7 6 7 7 7 8 7 7 7 4 5 6 7 9 9 9 8 7 8 10 8 9 11 11 10 9 9 10 10 9 10 10 9 9 9 8 8 8 6 6 7 7 7 6 7 7 7 6 6 5 5 6 7 6 7 7 7 6 6 6 6 6 6 5 4 5 5 5 5 4 3 5 4 3 3
4 2 3 5 3 3 2 4 1 1 2 4 2 6 8 8 6 5 4 11 8 9 10 10 9 9 8 8 8 8 6 6 6 7 7 9 10 10 9 9 9 11 11 11 11 10 10 10 10 9 10 10 9 9 9 10 8 7 7 6 7 5 5 6 6 6 7 7 8 8 8 7 6 6 5 6 6 6 6 6 6 6 6 6 6 6 5 6 6 7 7 7 3 0 1 2 5
3 3 1 2 3 4 1 0 1 1 0 0 3 3 7 6 6 6 7 9 7 9 12 11 10 11 11 10 9 9 9 8 9 9 9 8 9 10 8 8 9 8 9 8 9 11 10 9 9 10 9 10 10 9 9 8 8 7 7 6 8 7 6 5 7 6 6 8 8 8 8 7 8 7 7 7 7 6 7 7 6 6 7 7 7 7 7 7 6 6 5 6 5 4 4 5 6
3 4 2 1 1 1 2 3 2 1 1 1 2 4 7 6 7 7 9 12 9 7 8 8 9 9 8 6 7 9 10 10 9 9 8 9 8 8 10 10 8 9 9 10 10 11 9 11 11 11 10 11 10 10 9 7 7 6 6 4 3 4 2 2 4 7 7 5 5 7 8 8 7 7 8 8 8 8 7 7 7 7 7 7 7 7 7 8 8 7 7 7 8 8 7 5 4
3 3 2 3 2 6 5 5 4 2 3 3 3 2 5 5 11 14 10 7 10 8 8 9 9 7 5 7 8 5 5 6 10 11 11 11 11 8 7 7 7 7 8 8 10 11 9 10 10 9 8 8 9 9 10 8 8 9 8 8 7 5 6 5 7 8 7 7 7 4 5 6 5 5 6 6 7 7 8 8 8 7 7 7 7 7 7 5 6 7 8 8 8 7 8 5 4
3 3 4 2 3 7 6 5 2 2 1 1 0 8 5 2 3 7 7 6 11 5 8 9 8 7 8 9 8 8 8 5 2 3 6 8 8 8 8 9 9 9 9 6 6 7 8 8 9 10 9 8 8 8 10 8 7 8 10 10 10 9 9 6 4 4 6 6 6 7 7 7 8 9 8 8 7 8 8 7 7 7 7 7 7 6 6 7 7 7 7 7 8 7 5 7 8
3 1 3 5 7 6 5 5 3 0 1 1 0 1 2 5 9 4 5 7 6 5 7 8 8 9 11 10 9 8 8 6 7 7 5 5 6 9 10 10 9 9 6 6 5 5 8 8 9 9 8 7 7 7 10 10 9 8 8 8 8 8 8 7 6 6 4 3 3 3 5 6 7 7 7 7 7 7 7 7 7 7 7 7 7 7 8 7 6 5 8 9 7 7 8 9 8
2 0 4 0 3 5 5 3 2 0 1 3 2 2 1 4 5 1 0 1 3 6 7 10 11 9 9 10 9 8 7 7 8 7 7 7 6 5 5 6 6 7 7 8 7 6 5 5 6 6 7 7 7 7 9 9 8 7 7 7 7 6 7 6 5 6 5 4 4 4 4 4 5 6 7 6 5 6 6 7 6 6 7 6 7 6 6 6 7 7 7 7 8 8 8 9 8
2 1 2 3 3 2 3 2 2 0 1 5 5 5 3 7 3 4 1 3 6 6 9 10 10 11 9 7 5 5 5 4 3 3 3 3 3 3 2 4 5 4 4 4 5 5 5 5 6 7 6 6 6 6 7 8 7 7 7 6 7 5 4 4 4 5 5 6 7 6 6 6 6 6 5 4 5 5 5 7 7 8 8 7 7 7 7 7 6 7 8 8 8 9 7 8 9
4 3 6 3 3 1 0 0 2 1 3 7 4 8 3 4 5 7 6 6 7 7 3 1 2 5 5 5 5 5 4 4 3 2 2 2 2 3 4 4 4 4 3 4 4 4 4 5 5 6 6 5 5 7 6 8 7 6 7 6 6 6 5 5 4 4 4 5 6 5 4 4 3 5 6 6 5 5 6 6 7 6 6 6 7 7 7 6 6 7 7 7 8 9 7 8 8
5 2 3 5 4 2 1 1 0 2 4 1 3 1 0 7 4 3 2 0 1 2 2 4 4 5 5 5 5 4 4 4 5 4 5 4 3 2 3 4 5 5 4 4 4 4 5 5 6 6 5 6 5 7 6 7 7 6 5 6 7 6 7 6 7 6 5 5 5 4 2 2 2 3 3 4 5 4 5 5 4 5 6 6 6 6 6 6 7 7 7 7 7 8 7 7 7
2 5 6 7 2 2 1 1 3 4 5 1 1 2 2 9 7 7 4 1 2 3 1 5 6 5 5 5 5 4 4 4 4 4 5 5 5 5 5 5 6 6 6 5 5 5 5 5 6 7 6 5 6 6 6 6 6 6 6 5 5 6 6 6 6 5 4 5 5 4 3 4 4 5 5 5 3 3 3 4 4 4 4 5 5 6 6 6 6 6 7 7 7 7 7 8 8
3 7 7 5 3 2 2 2 2 1 1 3 1 2 2 3 5 13 14 13 4 5 4 5 6 6 6 5 3 4 4 4 4 4 4 4 5 6 6 6 6 5 6 7 6 6 5 5 6 7 6 6 6 6 7 6 6 6 6 5 5 6 6 6 6 6 5 5 5 5 5 5 6 6 6 7 6 5 4 4 4 4 5 4 5 5 5 5 6 6 6 7 7 7 6 7 9
7 4 7 5 4 3 3 3 5 5 2 1 3 2 6 3 6 2 9 2 5 3 3 4 5 5 4 2 2 2 4 4 4 4 4 4 4 5 5 6 5 5 6 7 6 6 6 6 7 8 7 6 7 7 6 6 6 6 6 5 5 5 6 6 6 6 7 6 5 6 6 6 6 6 7 7 7 7 6 6 6 6 5 5 5 5 5 5 5 5 6 6 6 4 5 6 7
1 2 2 1 5 0 4 1 1 2 1 0 1 4 2 5 2 3 3 2 1 1 2 3 3 4 3 2 3 4 4 4 4 4 3 3 4 5 5 5 5 5 6 5 6 6 6 7 6 7 8 6 6 6 5 6 5 5 5 5 5 4 5 5 4 4 5 6 6 6 6 7 7 6 4 5 6 7 7 6 6 6 6 5 4 4 5 5 5 6 5 5 6 4 6 7 7
5 4 3 3 1 7 4 1 0 0 1 5 4 3 7 4 7 10 3 2 1 1 3 3 4 5 5 3 4 4 4 4 4 2 4 4 4 4 4 5 5 5 5 6 5 5 5 6 6 7 7 5 5 5 4 5 5 5 4 4 4 4 4 5 6 5 4 4 5 5 5 3 2 1 1 2 4 5 6 5 5 6 6 6 5 5 5 5 5 6 6 5 6 5 6 7 6
6 2 5 1 1 3 3 3 1 0 3 3 6 7 3 3 6 1 2 2 4 4 4 5 4 4 5 5 5 5 5 4 3 2 2 3 4 4 4 4 5 5 5 5 5 5 4 5 5 8 7 8 6 6 5 5 5 5 5 5 5 4 4 3 3 3 2 2 1 1 0 0 1 1 1 0 1 1 1 2 2 2 3 4 5 5 5 6 6 6 7 7 6 5 6 6 5
3 6 0 5 1 3 1 1 3 1 2 2 2 5 3 6 5 0 3 5 5 5 4 4 5 5 5 5 5 4 4 4 3 3 2 1 3 4 4 4 4 4 4 5 5 4 5 4 5 7 7 7 7 6 4 4 4 4 4 5 5 4 3 2 1 0 0 0 2 2 3 2 1 0 1 1 1 0 0 1 2 4 4 4 4 5 6 6 7 7 7 6 5 5 5 6 5
0 0 2 1 2 3 4 4 2 3 3 1 4 1 3 4 4 4 4 7 7 5 5 5 6 6 5 5 6 6 5 4 4 4 4 3 4 4 5 5 5 5 5 5 5 4 5 4 5 6 6 6 6 6 5 5 4 4 4 5 5 4 4 3 3 2 2 2 1 1 1 1 1 0 1 1 1 2 3 4 4 4 4 4 5 4 4 4 6 7 6 5 5 5 5 6 6
1 2 1 1 1 1 2 2 4 3 2 2 2 2 4 6 3 5 3 1 2 5 7 4 4 5 5 5 6 6 5 5 5 5 4 4 4 4 5 4 5 5 5 5 5 5 5 4 5 5 7 6 6 5 4 4 4 4 4 4 4 4 4 4 3 2 2 0 0 0 0 0 1 0 0 0 1 1 1 2 3 3 4 4 4 4 4 2 3 4 4 4 4 5 6 7 6
8 10 8 11 7 3 3 6 1 1 1 3 2 6 2 2 2 4 4 1 3 2 2 4 2 4 4 5 5 5 5 5 5 5 5 5 5 4 4 4 4 5 4 5 4 5 5 5 4 5 5 5 5 4 4 4 4 4 4 3 4 3 3 3 3 2 1 0 0 1 1 2 1 1 1 1 0 1 1 1 1 3 3 4 4 4 3 3 4 4 4 5 5 6 6 7 6
Wind_Direction
308 296 254 255 265 259 305 242 274 196 231 249 155 223 99 99 107 108 90 161 91 59 55 65 62 40 17 57 87 76 32 56 12 240 108 156 202 122 113 120 124 114 114 117 122 112 106 104 104 102 101 95 95 88 79 80 77 81 88 90 90 87 85 84 84 81 83 84 80 78 73 70 68 70 71 73 73 73 71 68 66 69 72 72 70 70 70 71 71 72 73 73 73 72 72 68 63
305 314 296 253 254 324 254 183 262 273 209 235 76 80 123 94 151 97 154 123 88 106 86 72 61 74 310 57 132 106 51 55 61 87 93 132 146 120 121 121 127 122 118 129 123 114 108 111 111 106 105 104 98 90 76 84 96 83 80 89 93 89 83 88 89 89 85 81 81 77 74 74 73 72 75 76 72 74 73 74 77 76 73 74 72 72 71 70 71 71 72 72 72 73 73 70 62
314 314 302 234 259 217 293 306 259 282 231 167 64 99 124 132 119 139 77 85 102 109 91 75 74 46 62 192 51 49 101 87 94 98 109 139 137 127 133 129 127 123 135 129 115 113 115 112 114 112 107 101 97 90 85 84 81 76 81 89 89 87 87 92 90 85 86 84 80 77 75 72 71 66 63 72 74 71 72 72 69 71 74 75 75 75 77 76 74 73 73 74 74 74 75 72 63
293 277 272 314 288 183 280 236 250 254 287 105 101 178 133 121 85 87 88 87 97 119 106 135 140 357 3 66 85 89 93 71 87 123 125 156 121 135 135 131 131 126 123 114 118 113 114 119 116 114 109 105 101 87 84 70 70 82 84 92 97 91 91 90 89 86 88 89 82 78 76 73 72 71 77 79 79 76 74 74 75 80 78 73 69 70 72 72 73 73 74 75 73 74 75 74 60
285 267 248 301 314 226 250 243 239 248 333 323 114 164 132 98 108 100 99 105 109 113 144 151 104 34 75 43 4 58 83 113 103 100 124 116 126 127 142 128 121 121 121 115 109 111 122 122 120 120 114 110 105 95 88 73 75 84 83 93 90 88 91 88 90 88 82 79 81 77 75 75 71 71 75 75 75 75 75 79 77 72 72 75 77 75 73 73 73 72 72 73 74 72 73 70 55
255 273 212 126 276 358 344 295 265 276 12 356 127 126 127 114 108 113 111 110 112 130 43 185 21 181 73 45 0 85 235 128 139 129 111 131 138 132 134 135 125 132 118 106 108 116 122 119 121 120 119 112 109 105 92 83 86 91 88 81 92 94 94 97 89 87 89 88 84 83 81 76 73 75 75 75 75 77 75 70 66 71 74 75 75 76 75 74 75 74 73 73 74 73 72 66 53
311 292 218 185 267 119 262 251 263 202 345 11 67 140 102 109 115 113 108 88 46 46 2 139 146 127 104 120 79 42 10 111 140 125 109 136 124 130 150 126 141 123 115 109 107 115 126 124 126 120 116 118 114 111 99 88 88 88 87 90 90 96 89 95 94 90 88 88 86 85 84 84 81 79 85 80 80 79 80 81 81 77 74 74 76 76 75 74 73 73 72 73 73 74 73 66 54
243 15 169 191 214 137 246 263 276 13 312 42 25 81 105 113 124 119 136 132 153 149 197 326 253 9 82 179 102 120 52 49 88 104 124 126 122 142 154 132 135 119 108 107 109 119 128 124 120 120 120 120 117 113 104 92 88 86 95 93 91 100 94 92 99 94 92 89 89 89 86 82 77 78 77 79 79 78 78 78 78 78 79 78 75 73 73 75 76 76 75 74 74 74 75 65 57
249 186 133 314 249 151 259 254 227 119 131 80 61 74 104 126 135 128 155 147 131 169 161 199 116 186 161 87 85 99 60 98 103 117 131 123 128 161 141 140 126 110 106 105 113 125 124 119 120 122 121 121 120 114 110 100 93 90 89 87 92 102 97 88 97 96 95 94 94 93 91 86 80 81 84 79 78 78 79 83 83 81 80 78 75 76 73 73 75 75 76 76 76 76 76 69 58
272 139 248 235 240 197 202 270 263 87 102 105 128 108 120 129 134 139 149 117 149 133 156 166 99 64 118 99 117 139 136 111 121 122 135 129 141 165 133 140 121 115 108 117 127 130 127 123 121 123 123 123 122 119 111 105 103 96 89 99 103 100 103 99 98 98 99 98 97 97 97 93 87 80 77 79 79 85 86 84 83 81 79 79 77 75 76 76 76 78 78 79 79 79 78 67 59
254 169 279 286 238 267 193 254 163 140 106 90 86 106 110 147 130 141 155 122 146 113 87 116 124 190 131 81 64 51 130 121 133 135 145 133 157 148 139 120 122 119 122 132 130 123 132 126 123 123 125 121 116 117 112 110 112 103 94 95 106 106 110 105 101 102 101 102 99 98 100 101 95 89 75 65 59 73 76 80 79 82 82 80 81 80 77 77 77 75 75 75 76 77 76 65 58
279 217 151 212 225 203 225 232 143 93 128 127 104 121 130 139 150 145 146 130 135 115 144 194 162 173 129 123 132 148 133 145 129 139 141 140 160 139 127 115 128 117 127 129 125 134 138 129 129 129 125 121 115 114 117 115 108 112 108 103 104 116 117 110 105 105 105 103 104 99 86 83 95 95 79 66 58 73 82 84 84 84 82 82 80 80 78 76 75 76 78 77 77 77 75 61 55
244 205 229 275 234 229 291 281 122 127 114 185 141 136 169 126 169 156 131 123 147 136 152 200 14 221 108 78 127 135 150 153 133 143 143 147 146 133 122 119 141 114 123 132 132 139 137 145 135 139 131 122 118 114 110 104 108 114 116 113 102 89 90 100 113 111 109 97 84 82 80 80 85 90 83 71 63 69 86 86 87 85 83 82 82 82 81 81 79 79 78 79 77 73 70 61 55
224 261 182 231 289 274 292 20 117 112 180 123 117 134 170 145 189 136 128 142 157 157 64 132 178 316 89 108 149 156 155 149 137 145 153 145 146 150 125 127 148 123 127 143 136 137 146 145 143 138 136 133 127 116 110 110 108 103 96 95 88 83 86 85 83 96 89 86 79 76 73 80 87 87 82 72 65 63 76 84 87 85 84 83 81 83 83 82 82 81 81 80 77 72 68 61 56
273 316 269 214 235 238 247 286 198 179 61 119 142 141 152 119 190 37 133 139 36 102 202 51 12 11 170 190 160 173 155 145 142 144 154 135 144 150 122 134 145 120 137 161 138 146 155 145 147 141 154 144 142 138 130 113 108 101 101 96 90 85 82 89 93 97 99 95 90 84 83 84 81 79 73 68 62 64 65 69 79 84 86 87 87 82 83 84 84 84 84 82 78 71 63 58 54
281 1 261 219 250 162 253 221 9 28 154 113 171 140 120 49 25 104 40 41 123 69 108 102 25 36 53 45 140 140 147 137 137 146 147 128 133 103 90 123 150 130 148 166 146 153 152 146 143 152 162 150 157 145 139 127 115 108 102 100 98 99 97 93 95 96 101 104 104 102 99 91 88 85 80 69 67 67 69 82 79 81 87 88 86 89 86 85 84 84 83 81 75 68 59 51 39
10 91 297 240 265 172 189 201 138 203 121 124 166 155 143 150 17 67 260 97 131 159 81 60 84 65 53 71 113 130 133 131 132 152 144 128 126 113 116 136 162 141 149 168 148 156 147 139 144 160 168 154 164 144 143 134 126 111 98 96 99 105 107 104 102 102 100 112 117 128 127 119 116 114 99 80 72 75 79 78 80 81 87 85 86 86 83 81 83 79 77 80 84 82 70 59 42
154 224 226 238 256 177 167 214 140 141 125 153 165 174 127 142 164 115 151 97 94 141 106 80 66 66 82 90 111 122 131 138 143 156 147 143 144 151 157 184 165 154 159 177 170 161 152 150 154 164 168 156 164 140 140 134 148 137 128 129 117 114 115 122 128 132 135 139 157 162 177 146 156 135 115 115 93 84 81 87 86 83 79 78 81 79 74 72 74 75 79 88 106 124 135 108 64
187 231 218 241 231 275 356 64 74 159 152 157 164 191 147 157 151 159 147 174 133 158 139 138 102 96 92 101 120 126 139 145 145 165 156 161 160 162 171 178 172 154 169 179 193 170 159 158 156 165 164 160 155 140 135 138 160 158 149 152 137 141 150 163 167 155 170 156 201 199 215 160 126 106 104 97 94 83 93 95 94 96 91 86 85 85 81 74 68 65 65 104 112 133 275 181 134
234 300 242 248 218 95 39 72 75 49 130 148 151 193 203 144 155 133 198 168 161 174 164 160 148 144 149 141 139 140 146 154 155 165 169 170 173 166 176 172 176 171 170 182 186 182 166 161 171 163 159 157 151 139 129 145 173 165 158 157 148 154 166 197 195 172 174 167 205 226 186 93 91 93 111 112 104 101 89 92 101 100 107 110 109 96 88 87 82 64 304 321 308 272 253 227 154
196 181 239 265 271 104 28 64 53 46 117 139 152 158 121 154 118 150 212 161 187 201 189 176 175 155 152 156 148 156 154 163 167 168 172 177 187 174 178 175 178 168 168 175 172 201 172 168 168 164 158 150 162 148 146 159 180 170 160 159 157 162 172 190 195 179 173 173 213 228 103 107 114 124 133 141 136 127 127 132 131 135 140 151 151 139 122 140 138 198 251 279 268 238 248 215 154
324 225 216 323 349 81 41 65 35 23 347 129 133 147 148 101 115 183 196 201 178 195 209 178 176 150 150 160 155 159 164 171 177 173 177 181 187 182 176 167 172 173 153 178 179 188 185 178 163 168 158 156 165 154 160 164 176 171 159 159 162 170 173 192 169 176 151 149 214 121 118 108 124 139 155 186 169 148 151 172 181 172 168 177 200 164 126 161 199 180 206 215 243 247 214 162 175
258 246 245 32 348 85 14 76 14 352 112 122 134 159 93 121 156 217 202 225 130 42 31 74 125 150 157 152 150 164 169 177 182 186 181 182 190 184 185 170 172 174 166 179 176 182 185 186 169 166 161 157 164 164 160 155 181 165 162 157 160 176 162 180 176 169 163 161 207 159 128 155 151 152 167 201 196 153 169 180 197 176 166 169 200 163 155 195 192 191 209 218 223 53 12 4 1
237 270 167 53 41 67 12 69 16 15 37 125 163 117 122 152 179 191 228 93 123 67 49 46 93 124 131 144 164 169 175 180 187 190 187 188 188 182 187 176 167 165 160 178 175 174 178 187 168 160 169 158 168 171 156 152 178 166 160 151 154 156 140 160 211 176 153 159 168 184 143 157 185 147 171 175 190 156 183 177 188 143 155 161 200 154 153 182 262 243 208 41 31 40 330 347 337
239 253 101 108 96 120 77 114 67 55 58 346 70 131 148 171 187 102 216 141 133 103 86 64 108 126 138 146 166 175 175 180 187 189 191 197 188 190 191 175 161 161 163 180 174 170 171 185 167 168 168 171 171 165 173 159 175 174 140 145 155 142 148 158 220 181 147 150 161 178 171 190 185 155 157 166 174 192 178 157 153 150 159 171 160 148 141 181 240 250 161 120 207 211 214 264 264
225 270 98 149 95 115 142 84 112 96 88 26 93 156 73 95 143 227 226 175 132 120 91 107 118 140 146 158 169 171 176 180 183 187 192 192 187 189 193 192 163 165 169 174 167 180 165 180 174 174 171 178 171 165 179 165 172 170 155 154 152 140 156 160 193 234 218 160 160 174 180 222 216 164 159 157 166 191 148 166 147 165 166 155 154 177 165 182 214 223 176 203 201 220 174 212 241
303 150 94 97 114 114 228 143 129 134 108 193 172 166 95 50 116 259 193 132 143 120 123 132 137 164 158 159 171 174 174 180 185 183 185 191 191 189 187 196 182 171 165 173 172 177 168 170 180 177 174 170 167 167 174 173 166 173 162 156 135 158 160 161 164 175 285 292 186 168 167 223 262 216 156 158 161 155 150 165 198 185 168 174 163 197 181 194 202 186 189 191 195 213 223 217 201
19 99 92 98 129 87 172 116 130 141 110 177 256 82 78 78 108 249 128 166 151 145 147 158 160 165 172 164 169 171 178 183 183 180 187 187 192 187 186 188 188 180 173 178 174 174 165 172 176 180 171 165 167 170 172 180 171 175 163 157 146 167 163 168 168 163 198 269 266 169 168 189 238 266 186 164 154 155 163 175 204 177 187 189 174 192 181 204 199 198 179 183 211 192 218 207 178
152 167 145 145 156 143 192 158 174 222 108 186 271 89 214 167 220 206 152 131 168 156 160 167 180 165 168 170 164 171 180 176 179 187 189 189 186 187 191 184 185 190 191 178 173 169 171 171 174 180 181 169 170 173 173 180 168 173 170 166 155 165 175 171 170 171 162 216 253 193 171 166 217 236 248 169 151 156 168 178 196 188 188 176 179 187 168 191 231 163 125 62 327 321 312 269 186
181 223 214 146 184 240 183 92 123 152 53 195 8 210 235 214 220 185 154 150 156 178 170 169 180 181 165 169 167 175 185 177 181 187 186 185 187 188 193 187 187 187 188 183 168 174 173 172 170 176 182 179 183 190 174 175 174 174 176 165 167 164 178 182 171 169 173 184 224 220 166 170 199 230 237 212 164 155 170 176 187 192 187 170 170 163 159 177 206 174 184 160 254 245 240 242 202
203 199 227 193 131 232 162 156 159 159 245 88 7 177 261 236 192 133 156 146 156 176 189 169 172 182 175 171 169 178 190 191 184 183 187 185 185 184 188 187 185 184 184 182 177 175 174 168 167 175 178 182 178 196 192 175 180 176 179 176 171 167 174 182 174 169 181 180 177 203 195 183 215 231 214 190 175 157 163 174 186 190 184 168 161 162 159 190 197 204 185 187 224 239 245 254 220
246 186 226 228 171 82 162 148 170 157 255 199 122 328 242 15 126 135 139 166 170 176 179 176 171 175 179 173 173 177 187 190 192 186 190 190 183 182 181 189 182 182 183 182 174 170 175 169 167 166 174 184 181 192 195 178 179 180 178 181 173 168 171 180 178 176 180 179 181 183 193 187 198 230 202 175 176 181 180 179 192 186 186 165 164 159 166 194 206 209 210 178 201 229 216 255 230
247 213 157 204 200 156 187 288 202 353 131 206 206 215 262 168 150 125 175 151 182 202 200 179 175 176 176 179 184 184 182 183 189 195 193 191 192 180 179 185 183 182 178 174 175 174 174 170 164 165 174 184 181 184 185 185 180 177 179 178 181 164 164 175 186 176 181 183 184 188 186 183 194 206 212 198 189 191 198 189 189 183 172 165 166 166 180 201 192 203 215 200 185 206 200 226 239
226 209 233 188 204 145 206 41 217 214 157 187 234 223 245 154 160 173 171 188 175 205 221 202 184 176 174 177 180 190 195 183 189 195 194 188 194 184 176 182 179 177 181 176 177 179 181 174 171 171 171 180 183 178 183 189 196 195 190 179 179 161 169 172 179 183 198 191 182 194 183 186 194 201 205 203 199 199 197 195 190 172 164 166 170 174 188 198 213 185 206 213 200 220 211 209 225
179 181 250 255 215 181 157 163 193 146 245 192 191 234 264 200 170 178 194 184 182 205 213 228 203 179 177 178 183 191 193 197 196 189 192 188 185 187 180 179 179 177 181 178 174 178 182 175 167 174 165 173 180 176 177 185 194 208 210 193 185 174 168 174 175 189 198 209 201 193 180 183 192 200 203 198 195 201 200 197 189 178 166 170 171 183 191 200 209 195 178 214 204 203 208 218 212
211 184 189 236 179 211 174 219 160 167 180 222 183 204 230 247 197 190 186 197 183 204 204 205 214 205 189 184 191 192 198 204 197 184 188 188 182 182 183 176 181 180 179 181 176 175 181 174 165 171 177 170 172 175 172 183 191 197 205 208 197 193 186 175 184 189 193 199 207 208 208 190 183 192 194 194 193 195 199 202 197 165 165 164 178 184 202 196 198 204 204 185 195 219 154 60 48
242 195 192 217 156 200 61 95 48 23 152 218 221 220 229 239 234 196 188 187 206 199 194 200 204 201 208 207 194 197 197 205 197 187 181 182 182 182 182 171 177 179 180 180 181 180 181 181 167 175 181 176 175 179 181 183 188 191 194 198 199 193 195 192 189 188 188 193 196 203 206 200 182 181 185 185 192 196 201 198 180 164 164 168 178 202 195 189 193 197 198 186 179 186 205 88 74
311 216 179 217 194 167 4 153 203 254 117 241 222 258 253 248 246 234 167 169 201 200 197 200 207 208 206 204 210 204 209 200 180 184 175 172 177 180 176 174 173 177 188 180 185 184 180 180 182 177 176 184 184 186 183 186 190 190 187 196 189 189 188 191 201 199 190 183 189 195 193 191 186 180 183 189 191 192 197 189 172 172 170 182 194 194 195 195 194 193 173 190 180 179 208 168 178
300 2 192 203 220 98 157 64 64 210 93 275 192 219 242 244 246 260 182 187 205 199 193 202 200 210 211 207 205 206 196 197 179 181 168 168 174 178 177 181 185 187 185 186 185 181 181 183 186 180 178 184 190 186 181 189 188 187 180 186 184 195 199 189 188 189 187 187 194 202 206 203 198 201 191 191 186 188 191 189 192 181 183 183 193 206 203 202 197 189 183 182 177 51 140 181 180
324 305 23 223 152 142 279 328 121 280 205 236 35 314 279 278 261 244 240 231 220 198 199 206 197 208 210 205 196 195 196 188 185 180 183 180 177 180 177 181 185 182 187 191 186 185 185 187 184 183 181 183 189 194 188 185 181 179 176 173 185 180 185 193 188 187 180 183 193 193 204 203 205 204 188 188 188 188 191 198 198 200 199 189 195 202 201 203 187 185 179 182 153 195 215 231 194
240 265 303 269 143 289 104 178 137 28 2 113 329 322 285 238 242 241 233 228 229 220 212 205 207 207 205 206 201 192 191 190 187 185 185 186 186 188 184 186 179 187 189 189 187 187 188 190 190 184 184 186 188 190 187 174 163 165 164 162 145 103 60 75 162 192 195 188 181 186 196 188 194 195 193 191 191 195 196 200 201 205 203 196 189 196 194 197 190 183 177 179 188 205 226 222 209
245 228 206 343 178 113 95 116 116 129 277 218 132 345 282 225 214 223 222 211 222 218 202 207 205 205 199 208 214 209 205 189 182 185 187 188 188 189 186 181 183 193 197 195 190 190 185 188 189 188 188 186 186 186 182 172 173 171 169 175 198 188 187 186 190 186 190 199 204 192 194 195 196 199 196 195 196 199 205 202 201 200 198 193 192 198 194 178 180 181 191 198 207 209 216 220 216
207 246 201 180 69 115 128 157 143 151 187 285 100 176 269 310 246 228 216 192 215 207 198 208 201 203 207 216 213 206 202 209 197 168 167 171 182 175 185 187 192 194 204 194 189 186 184 182 186 189 190 187 182 177 179 174 173 177 181 188 193 194 192 210 184 188 182 192 187 200 200 195 203 208 212 210 212 206 202 194 194 195 197 198 199 197 196 196 195 200 197 201 211 204 197 233 229
227 242 335 145 114 122 159 153 178 163 49 19 329 153 212 288 283 308 174 173 202 204 217 226 217 208 210 216 217 214 212 199 193 205 211 193 172 174 185 191 189 195 188 182 190 183 182 181 181 186 184 181 181 172 178 182 180 179 178 185 186 188 189 193 191 199 188 184 192 200 177 191 202 204 208 206 199 187 189 190 192 198 203 204 192 203 204 201 201 206 199 204 203 195 200 215 227
205 287 354 65 135 153 151 145 184 292 95 288 212 267 340 251 261 230 81 225 259 235 219 219 215 211 207 205 206 207 203 196 185 193 200 202 204 190 172 172 182 168 168 175 183 186 180 178 174 173 179 177 181 174 172 181 179 178 180 179 184 190 171 181 177 179 185 185 215 235 214 204 190 189 193 195 197 200 195 200 198 205 208 207 194 206 209 202 203 203 197 196 200 206 205 215 222
246 216 54 46 52 85 132 145 136 30 107 252 222 201 196 283 246 234 253 206 233 231 223 222 205 201 196 176 162 146 122 109 109 143 157 157 157 156 144 113 100 113 111 128 146 162 170 167 171 172 181 176 175 173 165 173 174 171 179 182 177 182 161 165 151 169 183 186 206 211 200 204 207 199 201 198 200 209 209 205 207 207 208 208 200 208 205 206 206 210 201 202 204 211 210 212 221
131 129 82 53 49 58 358 96 115 73 251 244 211 203 184 294 248 196 168 216 205 235 258 1 106 115 110 124 133 135 138 137 154 164 170 166 126 120 112 124 133 111 121 129 142 158 170 172 174 178 185 171 169 174 167 172 174 176 182 181 177 176 175 166 178 209 195 188 189 201 197 199 188 181 177 196 193 196 207 205 213 216 213 209 202 204 210 206 209 212 211 210 212 212 215 216 225
121 120 129 91 2 34 41 329 77 178 266 228 324 283 139 192 289 241 186 252 157 145 187 171 135 135 129 127 124 125 133 153 160 165 173 140 120 128 132 170 156 152 146 171 173 173 179 185 182 184 188 175 169 171 169 169 171 177 173 173 178 175 169 177 185 197 199 183 177 186 217 209 235 202 187 174 191 193 190 199 206 216 218 214 216 214 217 212 212 214 217 215 221 219 219 218 226
92 118 121 124 192 79 325 192 221 216 220 269 356 349 305 247 238 284 265 181 170 192 151 176 160 148 139 126 131 144 158 157 169 169 155 159 168 176 179 187 154 158 172 178 175 172 173 177 175 169 182 165 160 159 167 164 164 177 177 177 177 173 171 173 180 184 191 175 171 177 196 206 209 203 199 210 206 201 206 193 191 212 216 216 219 217 223 215 213 214 217 222 221 217 214 217 226
163 153 145 139 139 156 207 223 200 272 310 282 334 274 265 264 274 239 258 261 190 173 130 111 134 142 143 145 145 150 178 170 168 161 158 169 166 170 181 166 159 163 168 169 171 169 173 174 174 166 179 164 157 160 168 166 168 171 174 176 174 169 180 176 178 180 187 175 169 187 200 204 208 205 200 200 202 204 202 206 199 203 209 213 213 219 218 213 213 217 218 223 225 226 219 224 231
190 167 149 169 160 152 199 174 194 205 194 305 275 79 232 131 251 259 231 199 96 72 89 120 116 121 124 135 182 210 188 159 157 160 175 168 154 151 153 158 158 157 159 163 168 171 169 172 170 166 165 164 157 161 160 165 166 166 173 178 176 168 177 182 186 177 177 173 181 191 203 208 213 213 197 197 189 191 204 203 205 211 203 207 205 211 214 213 210 219 222 225 234 221 225 229 235
216 167 84 170 223 165 170 195 187 145 113 129 325 206 220 189 245 259 146 116 76 159 159 151 158 145 137 178 207 204 180 156 160 156 155 138 143 143 139 140 151 155 157 159 166 164 167 171 170 166 158 148 144 145 154 161 167 162 163 172 179 171 175 177 190 185 178 177 191 196 206 205 205 207 191 176 192 187 193 199 199 200 195 197 197 195 200 201 204 212 220 219 233 205 224 230 235
220 118 198 190 106 95 101 11 247 48 39 259 172 307 293 273 309 270 176 130 223 152 239 224 215 161 143 180 187 180 159 145 146 161 154 148 129 147 151 148 149 148 153 165 167 165 167 162 156 142 137 133 139 149 156 156 160 155 166 170 191 196 182 182 189 197 201 197 192 198 195 202 181 154 201 153 161 177 184 187 198 199 198 194 200 193 187 193 195 201 208 212 225 216 221 233 232
100 141 216 117 166 115 136 221 54 216 173 254 144 206 275 191 274 314 89 203 216 220 217 214 205 175 161 190 181 170 170 161 149 118 107 141 157 151 132 142 150 154 159 153 154 163 148 151 141 136 142 148 156 159 170 176 162 162 173 186 202 214 210 203 188 186 191 182 196 181 94 352 239 233 173 119 111 135 150 176 206 228 205 203 208 207 195 190 188 195 198 205 210 208 224 232 231
114 172 319 143 226 276 253 185 245 234 230 257 234 218 243 180 237 151 240 205 226 222 203 176 187 184 194 169 169 160 152 122 124 140 156 141 123 133 132 121 113 124 134 131 130 127 124 136 129 136 150 157 160 162 170 178 162 163 171 183 189 205 224 223 252 9 354 173 197 192 189 204 253 52 99 100 95 93 134 246 218 243 259 242 221 211 208 199 189 195 198 203 203 204 223 238 231
171 119 64 36 99 197 138 189 214 120 240 209 299 147 243 217 218 210 243 210 208 194 175 206 201 191 190 175 164 163 169 161 158 155 161 144 114 107 116 124 120 112 101 105 112 107 111 120 123 135 139 144 152 162 163 173 174 160 159 165 181 181 183 176 180 190 230 206 205 154 156 138 221 112 119 133 150 190 211 223 224 217 230 240 250 251 216 200 196 202 198 196 193 195 226 238 242
225 60 91 127 85 223 101 299 193 178 206 210 241 309 278 258 237 218 221 151 149 166 190 207 210 190 180 169 163 167 176 161 159 154 142 125 112 96 83 88 92 85 91 98 116 122 120 110 104 115 131 136 140 147 139 146 131 121 126 144 159 156 164 151 143 133 136 112 86 62 57 66 55 17 65 104 170 191 209 207 218 222 213 227 232 246 260 231 201 213 213 203 205 205 220 236 233
184 168 183 178 153 138 162 266 68 108 141 238 229 242 283 276 14 34 106 135 105 36 136 179 139 145 136 133 151 160 165 155 148 145 133 120 110 106 100 96 103 106 111 103 98 100 104 113 119 108 109 118 123 127 131 134 136 143 152 157 145 139 129 112 112 105 96 75 77 89 85 66 75 326 36 326 214 271 234 233 243 248 241 239 239 232 234 235 238 214 215 205 211 213 227 239 230